[Date Prev][Date Next][Thread Prev][Thread Next] - [Date Index][Thread Index][Author Index]

2 Line ISS Keps 7-29



ISS
1 25544U 98067A   04211.37609954  .00033373  00000-0  27063-3 0  3254
2 25544  51.6322 110.4700 0006165  57.1250 100.6573 15.70407555324945
----
Via the sarex mailing list at AMSAT.ORG courtesy of AMSAT-NA.
To unsubscribe, send "unsubscribe sarex" to Majordomo@amsat.org



AMSAT Top AMSAT Home